Englewood, Florida, United States (34223)
Lat: 26.96N, Lon: 82.35W
Wx Zone: FLZ060
Local Info
Past Weather Observations for Monday, July 27, 2015

NOTE: This archive is for the closest National Weather Service station to Englewood. Information may differ from the station used for current weather conditions.

Click here for Long-term Archive

Time Weather Temperature Dewpoint Humidity Pressure Winds Precip Visibility
23:53
Clear
81°F / 27°C 75°F / 24°C 84% 30.01 in
(1016 mb)
SW 8.1 mph
(SW 13 kph)
- 10SM
22:53
Clear
81°F / 27°C 75°F / 24°C 84% 30.01 in
(1016 mb)
SSW 8.1 mph
(SSW 13 kph)
- 10SM
21:53
Clear
79°F / 26°C 75°F / 24°C 89% 30.01 in
(1016 mb)
SSE 4.6 mph
(SSE 7 kph)
- 10SM
20:53
Clear
81°F / 27°C 75°F / 24°C 84% 30.01 in
(1016 mb)
SW 9.2 mph
(SW 15 kph)
- 10SM
19:53
Clear
81°F / 27°C 73°F / 23°C 79% 29.98 in
(1015 mb)
SW 10.4 mph
(SW 17 kph)
- 10SM
19:10
Partly Cloudy
81°F / 27°C 77°F / 25°C 89% 29.98 in
(1015 mb)
SW 10.4 mph
(SW 17 kph)
- 10SM
19:00
Mostly Cloudy
82°F / 28°C 77°F / 25°C 84% 29.98 in
(1015 mb)
SW 13.8 mph
(SW 22 kph)
- 10SM
18:53
Mostly Cloudy
82°F / 28°C 77°F / 25°C 84% 29.98 in
(1015 mb)
SSW 9.2 mph
(SSW 15 kph)
- 10SM
17:53
Clear
82°F / 28°C 77°F / 25°C 84% 29.98 in
(1015 mb)
SW 9.2 mph
(SW 15 kph)
- 10SM
16:53
Partly Cloudy
82°F / 28°C 75°F / 24°C 79% 29.98 in
(1015 mb)
SW 11.5 mph
(SW 19 kph)
- 10SM
15:53
Partly Cloudy
84°F / 29°C 75°F / 24°C 74% 29.98 in
(1015 mb)
SSW 10.4 mph
(SSW 17 kph)
0.00 in
(0.00 mm)
10SM
14:53
Partly Cloudy
84°F / 29°C 77°F / 25°C 79% 29.98 in
(1015 mb)
SSW 17.3 mph
(SSW 28 kph)
0.01 in
(0.25 mm)
8SM
13:53
Partly Cloudy
82°F / 28°C 79°F / 26°C 89% 30.01 in
(1016 mb)
SSE 10.4 mph
(SSE 17 kph)
0.00 in
(0.00 mm)
10SM
12:53
Mostly Cloudy
Fog And Mist
81°F / 27°C 75°F / 24°C 84% 30.01 in
(1016 mb)
SW 9.2 mph
(SW 15 kph)
0.00 in
(0.00 mm)
3SM
11:57
Overcast
Rain
77°F / 25°C 75°F / 24°C 94% 30.04 in
(1017 mb)
SSW 6.9 mph
(SSW 11 kph)
0.00 in
(0.00 mm)
3SM
11:53
Mostly Cloudy
Rain
77°F / 25°C 75°F / 24°C 94% 30.04 in
(1017 mb)
SSW 8.1 mph
(SSW 13 kph)
0.03 in
(0.76 mm)
2 1/2SM
10:53
Partly Cloudy
Light Rain
77°F / 25°C 75°F / 24°C 94% 30.01 in
(1016 mb)
SE 4.6 mph
(SE 7 kph)
0.03 in
(0.76 mm)
10SM
10:18
Overcast
Light Rain
75°F / 24°C 75°F / 24°C 100% 30.01 in
(1016 mb)
SW 9.2 mph
(SW 15 kph)
0.03 in
(0.76 mm)
7SM
10:04
Overcast
Rain
75°F / 24°C 73°F / 23°C 94% 30.01 in
(1016 mb)
SW 16.1 mph
(SW 26 kph)
0.02 in
(0.51 mm)
2SM
09:53
Mostly Cloudy
Heavy Rain
75°F / 24°C 73°F / 23°C 94% 30.04 in
(1017 mb)
SW 15 mph
(SW 24 kph)
0.15 in
(3.81 mm)
1SM
09:51
Mostly Cloudy
Rain
77°F / 25°C 73°F / 23°C 89% 30.04 in
(1017 mb)
SW 17.3 mph
(SW 28 kph)
0.11 in
(2.79 mm)
1 1/4SM
09:33
Mostly Cloudy
84°F / 29°C 77°F / 25°C 79% 30.01 in
(1016 mb)
SW 12.7 mph
(SW 20 kph)
- 10SM
08:53
Mostly Cloudy
81°F / 27°C 75°F / 24°C 84% 30.01 in
(1016 mb)
SW 8.1 mph
(SW 13 kph)
- 10SM
07:53
Clear
81°F / 27°C 75°F / 24°C 84% 29.98 in
(1015 mb)
SW 6.9 mph
(SW 11 kph)
- 10SM
06:53
Partly Cloudy
79°F / 26°C 75°F / 24°C 89% 29.95 in
(1014 mb)
SW 11.5 mph
(SW 19 kph)
- 10SM
05:53
Mostly Cloudy
79°F / 26°C 75°F / 24°C 89% 29.95 in
(1014 mb)
SW 13.8 mph
(SW 22 kph)
- 10SM
05:43
Mostly Cloudy
79°F / 26°C 75°F / 24°C 89% 29.95 in
(1014 mb)
SW 17.3 mph
(SW 28 kph)
- 10SM
05:14
Mostly Cloudy
79°F / 26°C 75°F / 24°C 89% 29.92 in
(1013 mb)
SW 10.4 mph
(SW 17 kph)
- 10SM
05:02
Mostly Cloudy
79°F / 26°C 75°F / 24°C 89% 29.92 in
(1013 mb)
SW 6.9 mph
(SW 11 kph)
- 10SM
04:53
Mostly Cloudy
79°F / 26°C 75°F / 24°C 89% 29.92 in
(1013 mb)
SW 6.9 mph
(SW 11 kph)
0.02 in
(0.51 mm)
10SM
04:01
Mostly Cloudy
Light Rain
77°F / 25°C 75°F / 24°C 94% 29.92 in
(1013 mb)
SW 9.2 mph
(SW 15 kph)
0.02 in
(0.51 mm)
4SM
03:53
Partly Cloudy
77°F / 25°C 75°F / 24°C 94% 29.92 in
(1013 mb)
SW 8.1 mph
(SW 13 kph)
- 8SM
02:53
Partly Cloudy
75°F / 24°C 75°F / 24°C 100% 29.92 in
(1013 mb)
SSE 5.8 mph
(SSE 9 kph)
- 10SM
01:53
Partly Cloudy
75°F / 24°C 75°F / 24°C 100% 29.92 in
(1013 mb)
S 8.1 mph
(S 13 kph)
- 10SM
00:53
Mostly Cloudy
75°F / 24°C 75°F / 24°C 100% 29.95 in
(1014 mb)
S 4.6 mph
(S 7 kph)
- 10SM
Time Weather Temperature Dewpoint Humidity Pressure Winds Precip Visibility


Weather for websites

WeatherForYou.com, LLC is not responsible for any damages or problems caused by this service. Current weather conditions are obtained from the closest station including government and personal stations which may have varying degrees of accuracy. Weather forecasts are derived from the NOAA NDFD. Like all things, this site belongs to Jesus Christ... He just trusts us to maintain it. If you have any questions or comments email webmaster@weatherforyou.com

Copyright © 2015, WeatherForYou.com LLC. All rights reserved.